[[{"header":{"parameterUnit":"m.s-1","parameterCategory":1,"la1":30.2991,"la2":30.254,"lo1":-89.0895,"lo2":-89.0444,"dy":0.0017,"dx":0.0017,"nx":28,"ny":28,"refTime":"2023-08-06T03:00:00:Z","depth":0,"parameterNumber":2,"parameterNumberName":"U-component_of_WINDS"},"data":[0,0,0,0,0,0,0,0,0,0,0,0,0,0,0,0,0,0,0,0,0,0,0,0,0,0,0,0,0,0,0,0,0,0,0,0,0,0,0,0,0,0,0,0,0,0,0,0,0,0,0,0,0,0,0,0,0,0,-1.4405,-1.4406,0,-1.4515,-1.4516,-1.4517,-1.4571,-1.4571,-1.4571,-1.4571,-1.4689,-1.4692,-1.4696,0,0,0,0,0,0,0,0,0,0,0,0,0,-1.4247,-1.425,-1.4405,-1.4406,-1.4408,-1.4515,-1.4516,-1.4518,-1.4571,-1.4571,-1.4571,-1.4571,-1.4688,-1.4692,-1.4696,0,0,0,0,0,0,0,0,0,0,0,0,0,-1.4332,-1.4251,-1.4405,-1.4447,-1.4452,-1.4514,-1.4516,-1.4518,-1.4571,-1.4571,-1.4571,-1.4571,-1.4687,-1.4692,-1.4696,-1.4726,0,0,-1.4711,-1.4713,0,0,0,0,0,0,0,0,-1.4327,-1.4338,-1.444,-1.4444,-1.445,-1.4529,-1.4504,-1.4588,-1.4571,-1.4526,-1.4571,-1.4571,-1.4637,-1.4645,-1.4666,-1.4732,-1.4737,-1.4711,-1.4714,-1.4716,-1.4718,0,0,0,0,0,0,0,-1.4321,-1.4334,-1.4449,-1.4441,-1.4447,-1.4463,-1.4475,-1.452,-1.458,-1.453,-1.4534,-1.4546,-1.4639,-1.4662,-1.4669,-1.4739,-1.4711,-1.4715,-1.4718,-1.472,-1.4836,-1.4836,0,0,0,0,0,0,-1.4308,-1.4328,-1.4445,-1.4452,-1.4387,-1.4465,-1.4479,-1.4504,-1.458,-1.4591,-1.4546,-1.4548,-1.4653,-1.4664,-1.4674,-1.4714,-1.4716,-1.4721,-1.4723,-1.4835,-1.4836,-1.4836,0,0,0,0,0,0,-1.4304,-1.4318,-1.4441,-1.4391,-1.4408,-1.4468,-1.4496,-1.4506,-1.4528,-1.4592,-1.4604,-1.4557,-1.4654,-1.4667,-1.4713,-1.4719,-1.4723,-1.4727,-1.4835,-1.4836,-1.4836,-1.4795,0,0,0,0,0,0,-1.43,-1.4316,-1.4327,-1.4391,-1.441,-1.4476,-1.4496,-1.4508,-1.4536,-1.454,-1.4606,-1.4617,-1.4655,-1.4705,-1.4717,-1.4726,-1.4731,-1.4835,-1.4835,-1.4836,-1.4796,-1.4794,-1.4792,0,0,0,0,0,-1.4294,-1.4312,-1.4327,-1.4341,-1.4425,-1.4476,-1.4487,-1.4529,-1.4536,-1.4548,-1.4589,-1.4615,-1.4716,-1.471,-1.4724,-1.4733,-1.4835,-1.4835,-1.4836,-1.4797,-1.4794,-1.4792,0,0,0,0,0,0,-1.4249,-1.4321,-1.4339,-1.4378,-1.442,-1.4485,-1.4501,-1.4525,-1.4568,-1.457,-1.4622,-1.4637,-1.4678,-1.4711,-1.4701,-1.4767,-1.4778,-1.4781,-1.4744,-1.4742,-1.474,-1.4731,-1.4735,0,0,0,0,0,-1.4243,-1.4277,-1.4339,-1.4368,-1.4388,-1.4441,-1.4465,-1.4493,-1.454,-1.4559,-1.4603,-1.4649,-1.4692,-1.4719,-1.4761,-1.4801,-1.4817,-1.4815,-1.4813,-1.4811,-1.4814,-1.4838,-1.4838,-1.4838,-1.4838,-1.4838,0,0,-1.4232,-1.4276,-1.4295,-1.436,-1.4396,-1.4431,-1.4456,-1.4492,-1.452,-1.4565,-1.461,-1.4645,-1.47,-1.4742,-1.4764,-1.4771,-1.4817,-1.4812,-1.481,-1.4813,-1.4838,-1.4838,-1.4838,-1.4838,-1.4838,-1.4838,0,0,-1.4231,-1.4267,-1.4295,-1.433,-1.4384,-1.4419,-1.4425,-1.4487,-1.4511,-1.4557,-1.4592,-1.4626,-1.4698,-1.4736,-1.4764,-1.4777,-1.4803,-1.479,-1.478,-1.4803,-1.4803,-1.4803,-1.4809,-1.481,-1.4792,-1.4792,-1.4792,0,-1.4211,-1.4264,-1.4307,-1.4341,-1.4369,-1.441,-1.444,-1.4473,-1.4538,-1.4558,-1.4565,-1.4656,-1.4696,-1.4748,-1.4751,-1.4773,-1.4784,-1.4783,-1.4799,-1.48,-1.4801,-1.4807,-1.4808,-1.479,-1.479,-1.4791,-1.4791,0,-1.4238,-1.4274,-1.429,-1.435,-1.4381,-1.4413,-1.4462,-1.4488,-1.4514,-1.4549,-1.4596,-1.4645,-1.4698,-1.4713,-1.474,-1.477,-1.4773,-1.4789,-1.4801,-1.4798,-1.4804,-1.4807,-1.4787,-1.4788,-1.4789,-1.4789,0,0,-1.4211,-1.4293,-1.4299,-1.4327,-1.4389,-1.4419,-1.4454,-1.4504,-1.4526,-1.457,-1.4601,-1.4661,-1.4676,-1.4709,-1.474,-1.476,-1.4768,-1.4774,-1.4777,-1.4772,-1.4806,-1.4793,-1.4795,-1.4786,-1.4786,-1.4787,-1.4801,0,-1.4218,-1.4279,-1.4319,-1.4365,-1.44,-1.444,-1.447,-1.4513,-1.4546,-1.4583,-1.4621,-1.4663,-1.4679,-1.4699,-1.4721,-1.4763,-1.4776,-1.4762,-1.4817,-1.4818,-1.4802,-1.4798,-1.4785,-1.4797,-1.4804,-1.4804,-1.4805,0,-1.4235,-1.4276,-1.4325,-1.4383,-1.44,-1.4426,-1.4476,-1.4509,-1.4559,-1.4582,-1.4618,-1.465,-1.469,-1.4699,-1.4756,-1.4745,-1.477,-1.4795,-1.4796,-1.4803,-1.4811,-1.4806,-1.4801,-1.4803,-1.4809,-1.4809,-1.4808,0,-1.421,-1.4278,-1.4316,-1.4339,-1.4409,-1.4426,-1.4457,-1.4506,-1.4534,-1.4579,-1.4598,-1.4647,-1.4674,-1.4712,-1.4757,-1.4759,-1.4809,-1.4822,-1.4831,-1.483,-1.484,-1.4839,-1.484,-1.4856,-1.4856,-1.4856,-1.4856,0,-1.4214,-1.4243,-1.4306,-1.433,-1.4364,-1.441,-1.4443,-1.4477,-1.4521,-1.4553,-1.4591,-1.4621,-1.4679,-1.4716,-1.4752,-1.4794,-1.4806,-1.4827,-1.4837,-1.4824,-1.4821,-1.4841,-1.4842,-1.4856,-1.4856,-1.4856,-1.4856,0,-1.4193,-1.4236,-1.4281,-1.4342,-1.4359,-1.4381,-1.4435,-1.446,-1.4496,-1.4537,-1.4549,-1.4606,-1.4652,-1.4701,-1.4764,-1.4788,-1.4829,-1.4842,-1.4812,-1.4817,-1.4824,-1.4823,-1.4838,-1.4843,-1.4854,-1.4854,-1.4854,0,-1.4193,-1.4215,-1.4279,-1.4302,-1.4331,-1.4368,-1.4397,-1.4443,-1.4472,-1.4531,-1.4549,-1.4598,-1.464,-1.4712,-1.4761,-1.481,-1.4824,-1.4826,-1.4832,-1.4819,-1.4825,-1.4823,-1.4826,-1.4824,-1.4824,-1.4824,-1.4823,0,-1.4188,-1.4208,-1.4246,-1.4292,-1.4324,-1.4363,-1.4403,-1.4421,-1.4476,-1.4507,-1.4553,-1.4585,-1.4649,-1.4698,-1.4753,-1.4787,-1.4815,-1.4821,-1.4826,-1.4813,-1.4795,-1.4806,-1.4806,-1.4821,-1.4821,-1.4821,-1.4821,-1.4821,-1.4177,-1.4199,-1.4247,-1.4289,-1.4324,-1.4361,-1.4388,-1.4426,-1.4465,-1.452,-1.4546,-1.4593,-1.4644,-1.472,-1.4753,-1.4792,-1.48,-1.4807,-1.4809,-1.481,-1.4807,-1.4788,-1.4802,-1.4803,-1.4803,-1.4803,-1.4803,0,-1.4174,-1.4207,-1.4244,-1.4299,-1.4332,-1.4354,-1.44,-1.4427,-1.4467,-1.4511,-1.4551,-1.4605,-1.4653,-1.4704,-1.4756,-1.4777,-1.4791,-1.4789,-1.4788,-1.4796,-1.4797,-1.4787,-1.4776,-1.4776,-1.4776,-1.4776,-1.4776,-1.4776,-1.4177,-1.4215,-1.4241,-1.4298,-1.4332,-1.4376,-1.4401,-1.4436,-1.4471,-1.453,-1.4568,-1.4601,-1.4649,-1.4704,-1.4749,-1.4764,-1.4781,-1.4775,-1.4793,-1.4793,-1.4795,-1.4797,-1.4789,-1.4778,-1.4778,-1.4789,-1.4789,-1.4789]},{"header":{"parameterUnit":"m.s-1","parameterCategory":1,"la1":30.2991,"la2":30.254,"lo1":-89.0895,"lo2":-89.0444,"dy":0.0017,"dx":0.0017,"nx":28,"ny":28,"refTime":"2023-08-06T03:00:00:Z","depth":0,"parameterNumber":3,"parameterNumberName":"V-component_of_WINDS"},"data":[0,0,0,0,0,0,0,0,0,0,0,0,0,0,0,0,0,0,0,0,0,0,0,0,0,0,0,0,0,0,0,0,0,0,0,0,0,0,0,0,0,0,0,0,0,0,0,0,0,0,0,0,0,0,0,0,0,0,5.7691,5.769,0,5.7642,5.7642,5.7641,5.7567,5.7566,5.7565,5.7563,5.7514,5.7514,5.7513,0,0,0,0,0,0,0,0,0,0,0,0,0,5.7719,5.7718,5.7691,5.769,5.769,5.7642,5.7642,5.7641,5.7567,5.7566,5.7564,5.7563,5.7514,5.7514,5.7513,0,0,0,0,0,0,0,0,0,0,0,0,0,5.7692,5.7718,5.7691,5.7647,5.7643,5.7643,5.7642,5.7641,5.7568,5.7566,5.7564,5.7562,5.7514,5.7514,5.7513,5.7552,0,0,5.7513,5.7513,0,0,0,0,0,0,0,0,5.7694,5.7691,5.7654,5.765,5.7645,5.7609,5.7633,5.7611,5.7568,5.7596,5.7563,5.7561,5.7547,5.7544,5.7539,5.755,5.7548,5.7513,5.7513,5.7513,5.7513,0,0,0,0,0,0,0,5.7696,5.7693,5.7672,5.7654,5.7648,5.763,5.7624,5.7629,5.7583,5.7594,5.7588,5.7583,5.7544,5.7539,5.7537,5.7547,5.7513,5.7513,5.7513,5.7513,5.7584,5.7586,0,0,0,0,0,0,5.7704,5.7695,5.7673,5.767,5.7665,5.7631,5.7624,5.7622,5.7583,5.7575,5.7585,5.758,5.7541,5.7538,5.7535,5.7576,5.7513,5.7513,5.7513,5.7582,5.7584,5.7587,0,0,0,0,0,0,5.7705,5.7703,5.7675,5.7681,5.7676,5.7632,5.7631,5.7623,5.7618,5.7577,5.7568,5.7589,5.7539,5.7536,5.7548,5.7573,5.7513,5.7512,5.758,5.7583,5.7585,5.7658,0,0,0,0,0,0,5.7706,5.7704,5.7718,5.7682,5.7676,5.7689,5.7633,5.7623,5.7618,5.7611,5.7578,5.757,5.7537,5.7548,5.7548,5.7572,5.7512,5.7577,5.7581,5.7585,5.7654,5.7664,5.7672,0,0,0,0,0,5.7707,5.7741,5.7719,5.7717,5.7693,5.7691,5.7687,5.7648,5.762,5.7634,5.7607,5.7571,5.7571,5.755,5.7549,5.7573,5.7575,5.758,5.7584,5.7649,5.7662,5.7672,0,0,0,0,0,0,5.7782,5.7736,5.7711,5.7734,5.7717,5.7678,5.7694,5.7663,5.7653,5.7647,5.7599,5.7592,5.761,5.7593,5.7571,5.7607,5.7567,5.7572,5.7618,5.7629,5.7638,5.7641,5.7512,0,0,0,0,0,5.7801,5.7803,5.7762,5.7787,5.7779,5.7739,5.7736,5.7707,5.7688,5.768,5.7654,5.7636,5.7631,5.7629,5.7623,5.7651,5.7642,5.7667,5.7677,5.7684,5.7688,5.7699,5.7709,5.7601,5.7601,5.7601,0,0,5.784,5.7815,5.7819,5.7801,5.7784,5.7786,5.7733,5.7738,5.7739,5.7681,5.769,5.7671,5.7647,5.7667,5.7674,5.7653,5.7716,5.769,5.7697,5.7696,5.7705,5.7715,5.7724,5.7604,5.7604,5.7603,0,0,5.7913,5.7895,5.7912,5.7896,5.7871,5.7844,5.7848,5.7814,5.7799,5.7808,5.7763,5.7764,5.7758,5.7742,5.7733,5.7799,5.7764,5.7798,5.7846,5.7857,5.7866,5.7873,5.7894,5.7902,5.7803,5.7803,5.7803,0,5.7964,5.7966,5.7925,5.7932,5.7925,5.7872,5.7888,5.7875,5.785,5.7845,5.7822,5.7812,5.7793,5.7807,5.7823,5.7818,5.782,5.7801,5.7868,5.7875,5.7881,5.79,5.7909,5.7807,5.7806,5.7806,5.7805,0,5.803,5.8032,5.8049,5.8025,5.802,5.8032,5.7991,5.7991,5.7963,5.7938,5.7946,5.7921,5.7908,5.7909,5.7883,5.7919,5.7906,5.7877,5.7835,5.7896,5.7913,5.792,5.7813,5.7811,5.781,5.7809,0,0,5.8147,5.81,5.8107,5.8094,5.8063,5.8063,5.8073,5.8059,5.8058,5.8043,5.8048,5.8044,5.8015,5.8005,5.7976,5.7986,5.8037,5.7954,5.7953,5.7968,5.8072,5.8094,5.8103,5.8015,5.8016,5.8017,5.8073,0,5.8212,5.8224,5.8187,5.8209,5.8209,5.8159,5.8166,5.8148,5.8124,5.8121,5.8095,5.8091,5.8055,5.8048,5.8057,5.8029,5.8056,5.8025,5.8017,5.8017,5.8022,5.8112,5.8135,5.819,5.808,5.8081,5.8082,0,5.8288,5.8276,5.8298,5.8263,5.8262,5.827,5.8253,5.8251,5.8228,5.821,5.8199,5.8165,5.817,5.8132,5.8137,5.8116,5.8111,5.8097,5.8098,5.8094,5.8052,5.8109,5.8207,5.8214,5.8093,5.8092,5.8091,0,5.8369,5.8358,5.8368,5.836,5.8321,5.8327,5.8311,5.8286,5.828,5.8266,5.8261,5.8248,5.8241,5.8231,5.8193,5.8169,5.8202,5.8162,5.8186,5.8187,5.8193,5.8193,5.829,5.8194,5.8194,5.8194,5.8194,0,5.8443,5.8458,5.8404,5.841,5.8425,5.8382,5.8397,5.8376,5.8354,5.8355,5.8311,5.8313,5.8264,5.826,5.8231,5.8238,5.8236,5.822,5.8212,5.8223,5.8225,5.8217,5.8212,5.8196,5.8196,5.8195,5.8195,0,5.8534,5.8499,5.8507,5.847,5.846,5.8473,5.844,5.8443,5.8417,5.8419,5.8417,5.8375,5.8368,5.833,5.8314,5.8294,5.8311,5.8296,5.8319,5.8313,5.8338,5.8335,5.8432,5.8441,5.8342,5.8343,5.8344,0,5.8583,5.8593,5.8556,5.8554,5.8539,5.8536,5.8529,5.8487,5.8482,5.8456,5.8462,5.8451,5.844,5.843,5.8398,5.8385,5.8368,5.8403,5.8366,5.8376,5.8365,5.8364,5.8364,5.841,5.8411,5.8412,5.8413,0,5.8673,5.8655,5.8647,5.8633,5.8626,5.8612,5.8597,5.8597,5.855,5.8546,5.8537,5.8529,5.8512,5.8501,5.8482,5.8464,5.843,5.8425,5.843,5.844,5.8452,5.8443,5.8338,5.8423,5.8422,5.8421,5.8421,5.842,5.8743,5.8748,5.8723,5.8715,5.8699,5.8684,5.8686,5.8659,5.8652,5.8635,5.861,5.8605,5.858,5.8551,5.8536,5.853,5.8511,5.8518,5.8519,5.8521,5.8526,5.8454,5.8527,5.8526,5.8526,5.8526,5.8526,0,5.8828,5.8809,5.8802,5.8781,5.8775,5.8744,5.8725,5.8721,5.8717,5.8697,5.8686,5.8676,5.8664,5.8631,5.8616,5.8618,5.8601,5.8615,5.8613,5.8609,5.8545,5.8542,5.8628,5.8628,5.8628,5.8628,5.8628,5.8628,5.8871,5.8879,5.8857,5.8856,5.8836,5.8831,5.8822,5.8808,5.8791,5.8781,5.8772,5.875,5.8724,5.8707,5.8694,5.8685,5.868,5.8698,5.8683,5.8624,5.8614,5.8604,5.8601,5.8698,5.8698,5.8747,5.8748,5.8748]}]]